Wind_Speed
34 35 36 36 35 36 37 37 36 36 36 37 37 38 39 39 40 40 41 41 43 43 43 42 40 37 37 37 37 38 39 39 39 39 40 40 40 40 39 38 38 39 40 41 42 43 43 46 48 47 47 47 46 47 48 49 49 49 49 45 42 42 47 50 50 50 51 52 49 47 46 46 47 47 47 44 41 40 40 40 41 43 43 42 43
35 36 37 37 36 36 37 37 37 37 37 37 38 39 40 41 41 41 41 42 43 44 44 43 41 39 37 37 37 38 39 39 40 40 41 41 42 42 42 40 39 40 41 42 44 44 43 44 46 48 48 48 48 48 48 48 49 49 48 48 43 39 44 49 49 51 53 52 50 48 47 47 45 45 47 45 42 41 39 38 40 42 42 42 42
36 37 37 37 37 38 38 38 38 37 38 38 39 40 41 42 42 42 42 43 44 45 44 43 42 40 39 38 37 38 40 41 42 42 42 42 42 43 42 41 39 39 40 41 41 43 43 43 44 46 48 48 48 49 48 48 49 49 48 49 45 40 44 49 49 50 53 51 51 51 49 47 45 45 48 47 44 42 39 37 38 40 41 42 42
36 37 38 38 38 39 39 39 39 38 39 39 40 41 43 43 43 43 43 44 44 45 45 44 42 41 39 38 38 39 41 43 44 44 44 42 42 42 41 40 38 37 37 37 37 39 41 41 42 44 46 47 48 50 50 49 50 51 50 51 48 40 42 49 50 50 52 52 52 52 49 48 46 46 49 49 45 42 39 38 38 39 40 41 42
37 37 38 38 39 39 40 41 40 40 40 41 42 43 44 45 45 45 44 44 45 46 45 44 43 41 40 40 39 40 42 44 45 45 44 42 40 40 39 38 37 36 35 35 35 36 38 39 40 41 43 44 46 50 52 51 51 52 52 53 52 43 39 48 53 52 52 53 53 53 51 49 48 48 48 48 47 44 40 38 37 38 40 40 41
37 38 39 39 39 40 41 41 41 41 41 42 43 44 46 46 46 46 45 45 46 46 45 45 44 43 42 42 41 42 43 45 45 45 43 41 40 39 38 38 36 36 36 36 37 36 36 37 38 39 40 42 44 47 52 53 53 52 53 54 54 47 40 45 53 53 52 53 54 54 53 52 50 49 48 48 48 46 42 38 37 38 39 39 40
38 39 40 40 41 42 42 42 42 42 42 43 44 46 47 47 47 47 46 46 46 46 46 45 44 44 44 44 43 43 43 44 45 43 41 39 39 38 38 38 37 37 37 37 38 37 35 34 37 38 39 40 43 45 49 53 53 53 53 53 53 50 43 43 50 53 52 53 54 54 54 53 51 50 49 49 49 47 44 40 38 38 37 38 39
39 40 41 41 42 43 43 43 43 44 44 44 45 47 48 48 48 47 47 47 46 46 45 45 44 44 45 45 44 44 44 44 43 41 37 36 37 37 36 37 37 38 38 36 35 37 35 31 32 36 38 38 40 41 44 50 53 53 53 53 53 52 47 43 48 52 52 51 54 55 55 54 52 50 50 50 48 46 44 43 41 40 39 38 39
39 41 42 43 44 44 44 44 45 45 45 45 46 48 49 49 49 48 47 46 46 46 45 45 44 45 45 45 44 44 44 42 40 38 35 34 35 36 35 35 36 36 36 33 32 34 34 31 29 33 35 36 37 39 40 45 51 52 52 53 53 53 51 46 46 50 51 51 52 54 56 55 52 50 50 49 48 45 44 44 44 43 42 41 39
41 42 43 44 45 45 45 45 45 46 46 46 47 49 50 50 49 48 47 46 46 45 44 44 44 45 45 44 44 44 42 39 37 35 33 32 34 35 34 34 35 35 34 31 29 29 30 29 28 29 32 33 34 36 37 41 48 52 52 52 51 52 52 50 47 48 50 50 51 54 55 55 53 50 50 50 49 47 45 45 45 45 44 42 39
42 44 45 45 46 46 45 45 46 46 46 47 49 50 51 50 49 48 47 46 46 45 44 44 44 44 44 44 44 43 39 36 34 33 31 31 32 33 33 33 34 34 33 30 27 26 26 27 26 26 29 31 31 33 36 39 45 50 51 50 51 52 51 48 46 49 51 50 52 54 54 54 53 51 51 51 50 48 47 45 45 45 45 42 38
44 45 46 46 46 46 46 46 46 46 47 48 49 50 51 50 48 47 47 46 46 45 44 44 44 44 44 43 42 40 36 33 32 31 30 30 31 31 31 32 33 33 31 29 26 23 23 23 23 24 27 31 31 33 35 37 40 46 49 49 51 53 52 46 44 47 51 51 52 53 52 53 53 52 51 52 51 49 48 46 45 46 45 43 40
45 46 47 47 47 46 46 46 46 47 48 49 50 51 50 50 48 47 46 46 45 44 44 44 44 43 42 41 39 36 33 31 31 30 29 29 30 30 30 31 32 31 30 27 24 22 21 19 20 23 26 30 33 33 34 36 38 42 45 48 50 52 53 50 46 45 48 50 50 50 50 50 52 53 52 52 52 51 49 47 46 45 45 45 44
46 47 48 48 47 47 47 47 47 48 49 50 50 51 50 49 48 47 46 45 44 43 43 43 43 42 41 39 37 34 31 30 30 29 28 28 29 29 29 30 31 31 29 25 23 21 20 17 18 22 25 30 33 35 34 35 37 39 41 45 48 50 51 52 50 47 46 47 48 49 48 47 49 51 51 51 51 51 50 49 46 45 45 46 45
47 48 49 49 48 48 48 47 48 48 49 50 51 50 50 48 48 47 45 44 44 43 43 42 40 39 39 38 34 32 31 29 29 29 29 28 28 29 30 30 30 31 29 26 23 22 21 18 19 21 24 28 32 34 34 35 36 38 39 41 44 47 49 50 49 47 46 46 46 47 47 45 45 47 49 49 49 49 50 49 46 44 45 47 47
48 49 49 49 49 48 48 48 49 49 50 50 50 49 48 47 47 46 45 44 44 42 41 39 38 38 38 35 32 30 30 28 28 29 29 28 28 29 30 31 31 31 31 28 24 22 21 19 19 22 24 27 30 32 32 34 35 37 38 39 41 43 46 47 47 46 45 45 46 48 48 46 44 46 46 45 45 47 50 50 47 44 46 48 48
49 49 49 49 48 48 48 48 49 49 49 50 49 48 47 47 47 46 45 43 42 40 39 37 36 37 36 33 30 28 29 28 28 29 29 28 28 29 30 31 31 32 32 31 27 22 20 19 18 22 25 27 30 32 32 33 35 37 38 40 40 40 40 42 44 45 44 44 46 48 48 47 46 46 45 45 44 47 49 50 48 46 47 48 48
49 48 48 48 48 48 48 48 48 49 48 48 47 47 47 46 44 42 41 40 38 38 37 34 34 34 32 30 29 27 27 28 28 28 29 29 29 30 31 31 32 32 33 33 30 25 20 19 17 19 25 27 29 32 33 33 35 37 38 39 40 39 38 38 41 43 43 44 45 46 47 48 47 46 46 46 47 47 47 47 47 47 47 47 47
48 47 47 48 48 48 48 47 48 48 47 46 46 46 46 46 43 41 41 41 39 38 36 33 31 31 29 29 29 27 26 28 28 28 29 28 29 30 30 31 31 32 33 34 32 27 22 20 18 16 22 26 27 29 31 33 35 37 37 39 40 39 38 38 39 40 41 43 44 44 45 46 47 46 46 47 48 48 47 46 47 48 48 47 47
47 47 47 48 48 48 47 47 47 47 46 45 46 46 46 46 45 43 42 41 39 38 36 33 29 28 27 28 28 26 26 27 28 28 28 27 28 29 30 30 30 31 33 34 33 30 25 22 19 16 16 22 25 27 28 30 33 35 37 39 40 38 38 38 37 37 39 41 42 43 44 45 46 46 46 47 48 48 48 48 47 47 46 47 48
47 47 47 47 47 47 46 46 46 46 45 45 46 47 47 46 46 44 42 39 37 35 34 31 28 26 26 26 26 26 26 27 27 27 27 26 27 28 29 29 29 30 32 33 33 30 26 23 21 18 14 15 20 23 24 26 28 30 35 39 40 37 37 37 36 35 37 38 40 42 44 45 46 45 45 46 47 48 48 47 47 46 45 47 50
48 47 47 46 46 46 45 45 45 45 46 46 47 47 47 46 45 43 41 38 36 34 33 31 27 25 25 24 23 25 26 27 27 26 26 26 26 27 28 28 28 28 30 32 33 31 27 24 22 19 15 11 13 16 19 22 22 23 29 36 37 36 36 36 35 34 35 37 38 40 42 43 43 43 43 43 44 46 47 47 47 46 46 48 50
48 47 46 46 45 45 45 45 45 45 46 47 47 47 46 45 44 42 39 37 35 34 32 31 28 26 24 23 22 23 25 27 27 26 25 25 25 26 27 27 27 28 28 30 31 31 28 26 23 21 17 11 9 10 13 19 19 18 24 30 33 34 35 35 34 34 35 37 39 40 40 41 41 41 41 41 42 45 46 47 46 47 47 48 50
47 47 46 45 44 44 44 44 45 45 46 47 47 46 45 44 42 39 36 34 34 33 32 30 28 26 24 22 21 22 23 25 26 25 24 24 24 24 25 26 26 26 28 29 31 30 29 27 24 21 19 13 8 7 10 15 18 17 22 27 28 30 32 33 34 34 35 37 39 40 40 40 40 40 41 41 43 45 47 47 47 47 47 47 49
46 45 45 44 43 43 43 44 44 45 46 46 46 45 44 43 41 38 35 33 33 33 32 29 27 25 24 23 22 23 24 25 25 24 24 23 23 23 24 25 25 26 27 29 30 30 29 29 26 22 20 16 10 6 7 12 16 18 21 25 25 26 29 31 31 33 34 35 36 37 38 38 38 39 41 43 44 46 47 46 46 46 46 46 48
45 44 44 43 43 43 43 43 44 45 45 45 46 45 43 42 40 37 35 34 33 32 30 27 25 24 24 25 24 24 24 24 25 25 23 22 22 23 24 24 24 25 26 28 30 30 29 29 28 24 21 19 13 7 6 10 15 19 21 25 25 25 27 28 29 30 32 34 36 36 37 37 37 38 39 41 42 43 43 43 43 43 44 44 45
44 44 44 43 42 42 42 43 43 44 44 45 45 45 43 41 40 38 36 34 33 31 28 25 24 24 25 26 25 23 23 23 24 24 23 22 21 22 23 24 24 25 26 27 29 30 29 29 29 26 23 20 16 9 5 8 14 18 22 25 28 28 27 27 27 30 31 33 34 35 34 35 36 35 35 36 37 38 39 40 41 41 41 42 43
44 43 43 42 42 41 41 42 42 43 44 44 45 45 43 41 39 38 36 35 33 30 26 24 24 23 23 23 23 22 22 22 22 22 22 21 21 22 23 24 24 25 26 27 28 29 29 29 29 27 24 20 17 12 6 5 11 16 19 23 28 32 33 32 31 33 34 34 33 32 31 31 32 31 31 32 34 35 37 38 39 40 41 41 41
43 43 42 41 41 41 40 41 41 42 43 44 44 44 42 41 40 39 37 35 33 30 26 24 23 21 20 19 19 20 21 21 21 21 21 21 21 22 23 24 24 25 25 26 27 28 28 27 28 28 25 22 19 15 10 4 6 11 14 17 23 30 35 37 37 35 34 34 34 34 32 32 31 30 30 32 33 34 36 37 38 40 41 41 40
42 42 41 41 41 40 39 40 41 41 42 43 44 43 41 40 40 39 36 33 30 27 24 22 20 19 18 17 17 18 19 20 21 21 21 21 21 22 23 24 25 25 25 25 26 27 27 25 25 26 26 23 20 17 14 8 4 5 9 13 17 21 28 36 40 39 34 32 34 37 38 36 33 31 31 33 34 33 33 33 35 38 40 41 41
41 41 40 39 39 39 39 40 40 41 41 42 42 42 40 39 39 37 32 28 26 23 21 19 18 17 17 16 16 17 18 19 20 21 21 21 21 22 23 25 26 25 23 23 24 25 26 25 23 23 24 23 22 19 16 12 7 3 4 7 12 16 20 28 36 41 40 34 31 37 41 40 36 34 33 33 34 34 35 36 37 38 40 40 40
41 40 39 39 38 38 38 39 39 40 40 40 40 40 39 37 36 33 27 23 21 20 18 16 15 16 15 15 15 17 18 19 19 19 20 20 21 22 23 25 26 25 23 23 24 24 25 24 22 21 21 22 22 20 18 15 11 7 3 3 7 12 16 20 26 34 39 38 32 32 34 36 37 38 37 37 37 38 40 41 41 41 40 41 41
40 39 38 38 37 37 37 37 37 38 39 38 38 38 37 35 33 28 24 22 19 18 16 15 14 15 15 14 15 17 18 18 18 18 19 19 20 21 22 23 24 24 23 23 23 23 23 22 21 20 19 20 21 20 19 18 15 12 8 4 2 6 11 16 19 24 30 34 32 29 28 29 33 36 37 39 41 43 43 43 43 42 40 40 41
39 38 37 37 36 35 35 35 36 36 37 37 36 35 35 35 31 25 21 20 19 17 17 15 15 15 15 16 17 18 19 19 18 18 18 19 20 20 21 21 22 22 22 22 21 21 21 21 20 19 18 18 19 19 19 18 17 15 13 10 6 2 5 10 15 18 22 26 28 29 29 30 32 33 34 35 38 40 42 43 44 44 43 41 40
37 36 36 35 34 33 33 33 34 35 35 35 35 33 33 33 30 24 20 20 20 20 19 17 17 16 17 18 20 20 21 20 20 19 19 19 19 20 20 20 21 20 20 20 20 19 19 19 18 18 18 17 17 17 17 18 18 17 16 14 12 8 4 4 8 13 17 21 24 26 29 32 33 33 32 33 35 36 37 38 41 43 45 44 42
35 35 34 33 32 32 32 33 34 34 33 33 33 31 31 32 29 23 20 20 20 21 20 20 19 19 19 20 21 22 22 22 21 20 19 19 19 20 20 20 20 19 18 18 18 17 17 17 17 17 17 17 17 17 16 17 17 17 17 16 15 13 10 7 3 5 10 15 19 21 24 27 30 30 29 30 32 33 34 36 39 42 44 45 45
34 34 33 33 32 32 33 34 35 34 32 32 31 30 30 30 27 23 21 21 21 22 22 21 21 20 20 21 22 22 22 21 21 21 20 20 20 20 20 20 19 19 18 17 17 16 15 15 16 17 17 17 17 17 16 17 17 17 17 17 16 16 14 12 10 7 4 4 9 13 16 20 24 27 28 28 27 28 29 32 35 39 42 45 46
33 33 33 33 33 33 34 34 35 33 31 30 30 29 29 29 27 24 22 21 20 21 21 21 20 20 21 22 22 21 21 21 21 21 21 21 21 21 21 20 20 20 19 17 16 16 16 16 16 17 17 17 17 17 17 17 17 17 17 17 17 16 16 15 14 12 10 8 6 4 6 10 14 19 22 24 25 26 26 27 29 32 35 38 41
33 33 33 33 33 33 33 34 34 32 30 29 29 29 29 28 28 26 23 21 21 20 20 20 20 20 21 22 22 23 23 23 23 22 22 22 22 22 21 21 21 21 21 20 19 18 17 17 18 19 19 20 19 19 19 19 19 18 18 18 17 16 16 16 16 15 13 12 12 11 9 7 7 9 12 15 18 21 23 24 25 27 29 32 34
32 32 33 33 33 33 32 32 32 31 30 29 29 29 29 27 26 25 24 23 22 22 21 22 22 22 23 23 24 25 25 25 25 24 23 22 23 23 22 22 21 22 22 23 22 21 20 20 20 20 21 21 21 21 21 21 21 21 20 20 19 18 17 17 16 16 16 15 14 13 13 12 11 9 9 9 11 14 17 19 21 23 26 28 30
31 31 31 31 31 31 30 30 30 30 29 29 29 29 29 27 24 23 24 24 24 23 24 24 24 24 24 25 26 27 26 26 26 26 25 24 24 24 24 23 22 22 23 24 24 24 24 23 22 22 22 23 23 23 22 22 22 22 22 21 21 21 20 19 18 18 17 17 16 16 15 15 15 14 13 12 11 11 13 14 16 18 21 23 25
29 29 29 29 29 29 29 29 29 28 28 27 27 27 28 27 26 26 27 28 28 27 27 26 25 25 25 26 26 27 26 25 25 26 26 26 26 26 25 25 24 24 24 25 26 26 27 27 26 25 25 25 25 25 25 24 23 22 22 22 22 22 22 22 22 21 20 20 19 19 19 18 17 17 17 17 16 14 14 14 14 15 17 18 20
28 27 27 27 28 28 29 28 27 27 27 27 26 26 26 27 27 28 28 29 29 28 27 26 26 25 25 25 25 25 25 25 25 25 26 26 26 26 26 26 25 26 26 27 27 28 29 29 29 29 28 27 27 27 27 27 26 25 24 24 24 24 23 23 24 24 24 24 23 23 22 22 21 21 20 20 19 19 18 18 18 18 17 18 18
27 26 26 26 27 27 27 27 27 28 28 28 28 26 26 27 28 29 30 30 29 29 28 27 26 25 25 25 25 25 25 25 26 26 27 27 27 27 27 27 27 27 28 28 29 30 30 31 31 31 30 30 30 29 29 29 29 29 28 27 26 26 26 25 25 25 25 26 26 26 26 26 25 25 25 24 23 22 22 22 22 22 22 21 21
26 25 25 25 25 25 26 26 26 27 28 28 28 27 27 27 28 28 29 29 29 28 28 27 26 26 26 26 26 26 26 27 27 27 28 28 29 29 29 29 29 29 29 30 30 31 32 32 33 33 33 33 32 32 32 32 32 32 32 32 31 30 29 29 28 28 27 27 28 28 29 29 29 29 28 28 28 27 26 25 25 25 25 25 25
26 25 25 25 25 25 25 25 26 26 26 26 26 26 27 27 27 27 27 28 28 27 27 26 26 25 26 26 27 27 27 28 28 28 29 29 29 30 30 30 31 31 30 31 31 32 32 33 34 34 35 35 35 35 35 35 35 35 35 35 35 35 34 33 33 32 32 31 31 30 31 31 31 31 31 31 31 31 30 30 29 29 28 28 28
26 26 26 26 26 26 26 26 26 27 26 26 26 26 26 27 27 27 27 27 26 26 26 26 26 26 26 26 27 27 28 28 29 29 29 30 30 30 30 31 31 32 32 32 32 33 33 34 35 35 36 36 37 37 37 37 38 38 38 38 38 38 38 37 37 36 36 35 35 34 34 33 34 34 34 34 34 34 34 34 33 33 32 32 32
28 28 28 28 28 28 28 27 27 27 27 27 27 26 26 27 27 27 28 27 27 27 27 26 26 27 27 27 28 28 29 29 30 30 30 31 31 31 32 32 33 33 34 34 35 35 35 36 36 37 37 38 38 38 39 39 39 39 39 39 39 39 39 39 39 39 38 38 38 37 37 36 36 36 36 36 37 37 37 37 37 36 36 35 35
30 30 30 30 30 29 29 28 27 27 27 27 27 27 27 27 27 28 28 28 28 28 28 28 28 28 28 28 29 29 30 30 31 31 32 32 33 33 34 34 35 35 36 36 36 37 37 37 37 38 38 38 38 38 38 38 38 38 38 39 39 39 39 38 38 38 38 38 38 38 38 38 37 37 37 37 38 38 39 39 39 39 39 39 39
31 31 31 31 30 30 29 28 27 27 27 27 28 28 28 28 28 28 29 29 30 30 30 30 30 30 30 31 31 32 32 32 32 33 33 34 34 34 34 35 35 36 36 36 36 36 36 35 35 35 35 35 35 35 35 35 35 35 35 35 36 36 37 37 37 37 37 37 37 37 37 37 38 38 37 37 37 38 39 40 40 41 42 42 42
32 32 31 31 30 29 28 28 27 28 28 28 28 28 28 29 29 29 30 31 31 32 32 32 32 32 32 32 32 32 32 32 33 33 33 33 34 34 34 34 34 34 34 33 33 33 32 32 31 31 31 30 30 31 31 31 31 31 32 32 32 33 33 34 35 35 35 35 35 35 36 36 36 36 37 37 37 37 38 39 40 41 42 43 44
Wind_Direction
308 308 308 307 306 306 307 307 306 306 307 308 310 312 314 314 314 313 312 311 311 312 313 315 316 315 313 310 307 305 305 305 303 301 302 305 306 306 302 297 291 286 284 282 280 274 266 260 257 255 253 250 250 251 246 240 237 235 234 236 237 238 238 238 235 229 230 234 235 239 243 241 239 241 242 243 243 241 238 236 235 235 236 236 235
306 306 307 306 306 306 307 307 306 305 306 307 309 311 313 313 314 313 312 312 312 312 313 314 315 315 313 311 308 306 305 304 303 302 303 304 305 304 302 298 293 288 284 280 278 276 270 262 256 254 253 250 249 251 247 242 240 237 234 236 237 238 240 239 235 230 229 233 238 239 241 240 238 239 240 241 242 240 238 235 235 235 236 236 236
304 305 306 307 306 306 307 307 306 305 306 307 309 310 312 313 314 313 312 312 312 312 313 313 314 314 314 313 310 306 304 303 303 303 303 304 303 302 301 299 295 290 286 280 276 274 271 265 258 254 252 249 248 248 246 243 241 237 234 234 235 238 241 239 236 232 229 232 237 238 238 240 240 239 240 240 239 238 235 234 235 236 237 237 236
303 305 307 307 306 306 306 307 307 306 306 307 308 309 311 313 314 313 312 312 311 311 312 312 313 313 314 313 311 308 305 304 303 303 303 303 303 301 300 299 296 293 289 285 281 275 270 266 261 256 252 248 246 245 245 243 240 236 235 234 233 237 242 240 237 234 231 231 235 236 236 239 240 240 240 238 238 236 233 232 235 236 238 239 238
304 306 307 308 307 306 306 307 308 307 307 307 308 309 312 313 314 313 312 312 311 311 311 311 312 312 312 313 312 309 306 305 304 304 304 304 302 300 299 299 297 295 291 289 289 283 273 266 262 257 252 247 244 243 243 243 240 236 235 235 234 236 242 242 239 237 234 233 234 235 235 237 239 241 240 238 237 236 233 231 233 236 237 239 239
303 306 308 308 308 307 307 308 309 308 308 308 309 311 313 313 313 313 312 312 311 311 311 311 310 310 311 311 310 309 306 305 305 305 305 304 302 300 301 301 300 297 292 290 292 291 279 267 262 259 254 247 243 241 241 241 240 236 234 236 236 237 242 244 240 237 236 235 234 235 234 235 238 241 242 240 236 235 233 230 232 236 237 238 239
303 306 308 309 309 309 309 310 310 310 310 310 311 312 313 313 313 312 312 312 312 311 311 310 310 309 309 310 310 308 306 305 305 305 305 304 303 302 303 304 302 300 295 291 291 293 286 271 262 259 256 250 245 242 241 240 239 236 234 235 237 236 240 246 242 237 236 235 235 235 234 234 237 240 242 241 237 235 234 233 234 237 239 238 239
304 307 309 310 310 310 311 311 311 311 311 312 312 313 313 313 312 312 312 312 312 312 311 310 309 308 308 309 309 308 306 305 305 304 304 303 302 304 306 305 304 302 299 294 290 290 288 278 265 259 257 252 246 243 241 239 238 235 233 234 236 235 237 243 243 239 236 235 234 235 234 233 235 238 241 242 240 237 235 235 236 237 238 238 237
305 308 309 310 311 311 312 312 312 312 312 312 312 312 312 312 313 313 313 313 312 311 310 309 307 307 307 308 308 307 306 305 304 302 302 302 303 305 308 307 306 305 302 297 291 287 285 280 269 260 257 251 244 240 239 238 235 233 232 232 233 233 234 238 242 240 237 235 233 233 234 233 233 235 239 242 242 240 236 234 234 235 236 236 236
305 308 309 310 311 312 313 313 312 311 311 312 313 313 313 314 314 314 314 313 311 310 309 308 307 306 307 308 308 307 306 305 302 300 301 302 304 307 310 310 309 308 307 301 294 289 284 278 270 262 255 249 242 240 243 241 235 232 232 231 230 230 233 236 240 240 238 235 232 232 233 233 232 233 236 239 241 240 236 232 232 232 234 234 234
306 307 309 310 311 312 312 311 310 310 311 313 314 314 315 315 315 314 313 312 310 309 308 307 307 307 308 308 307 306 305 303 300 299 301 303 306 309 312 313 312 312 310 304 296 294 289 277 268 261 252 244 240 240 242 242 237 233 233 232 230 230 231 234 238 239 238 235 232 231 231 232 232 232 233 236 239 240 236 232 231 232 233 234 235
305 307 308 310 310 311 310 310 309 310 312 314 315 315 316 315 314 313 312 311 309 309 308 307 307 307 308 307 306 305 304 301 298 299 301 304 307 311 314 315 315 314 310 304 297 299 299 282 263 256 250 245 242 241 240 239 236 234 233 231 231 231 231 232 235 236 235 234 231 230 230 232 232 232 233 234 237 239 238 234 233 233 233 234 235
305 306 308 309 309 309 309 309 310 311 313 314 315 316 315 314 313 312 311 310 309 309 308 307 307 307 308 307 307 305 303 299 298 299 302 304 307 313 316 317 317 315 310 304 299 303 308 291 261 250 249 246 244 243 240 237 235 234 234 232 231 232 233 235 237 236 234 233 231 229 229 230 232 232 233 234 235 238 239 238 235 233 232 234 235
305 306 308 309 309 309 309 310 311 312 314 315 315 315 314 313 312 312 311 310 310 309 308 307 307 307 307 308 307 304 301 298 298 300 302 305 308 313 316 318 319 316 311 305 303 308 312 295 263 250 249 247 246 245 243 239 235 234 235 233 231 232 233 235 237 237 234 232 231 229 228 230 232 231 232 233 235 238 240 240 238 233 231 233 234
305 307 308 309 309 310 310 310 311 313 314 314 314 314 313 313 312 312 311 311 310 309 308 308 307 307 307 308 307 304 301 299 299 300 303 306 309 312 315 318 320 319 313 307 307 315 316 296 266 253 250 249 249 248 245 241 238 235 235 234 233 232 232 233 235 235 233 231 229 228 227 230 232 231 230 232 235 238 240 241 239 234 230 232 232
306 308 308 308 309 310 310 310 311 312 313 313 313 313 313 313 312 312 312 311 310 309 309 308 307 306 306 307 305 303 301 300 299 300 302 305 308 310 314 317 321 321 317 311 312 320 321 303 271 253 249 248 248 248 246 242 239 237 235 235 235 234 234 234 234 232 230 228 226 225 226 230 231 228 228 230 234 239 240 240 239 234 229 229 230
307 308 308 308 309 309 309 310 311 312 312 312 313 313 312 312 312 312 313 313 311 310 309 309 308 307 307 306 304 303 302 301 300 300 302 306 308 310 312 316 320 322 319 315 315 320 325 314 281 253 246 246 246 246 246 242 239 238 238 238 237 236 235 234 232 230 228 226 224 224 226 229 229 226 225 226 230 237 239 238 237 235 231 229 228
306 307 307 307 307 308 308 309 310 311 312 312 312 312 312 312 312 313 313 312 311 309 308 308 309 309 308 306 304 304 304 303 301 301 303 307 309 310 311 314 318 320 320 318 318 319 322 322 300 261 245 245 247 247 248 246 241 239 240 241 240 238 236 235 232 230 228 227 226 226 226 227 227 226 225 225 227 233 236 236 236 235 231 227 226
305 305 305 305 306 307 308 308 309 310 311 312 311 311 311 311 311 311 309 308 307 304 303 304 306 306 305 306 305 305 306 306 304 304 306 309 311 311 311 313 315 318 319 320 321 320 318 320 315 283 251 245 247 248 249 250 246 242 242 243 242 240 238 236 233 231 229 227 227 226 225 225 226 227 227 228 229 232 235 236 235 235 231 226 224
303 304 304 305 306 307 307 308 309 310 311 310 310 310 310 311 311 310 309 307 305 300 298 300 302 302 303 305 306 306 307 306 305 306 309 312 312 312 312 313 315 316 317 319 323 324 319 315 317 306 269 249 247 248 250 251 249 246 244 243 242 240 238 237 236 233 230 228 227 226 224 225 227 228 228 230 231 232 235 236 236 236 233 227 223
303 304 305 305 305 306 307 308 309 310 310 309 309 310 311 311 311 312 311 309 303 297 295 295 297 299 302 304 304 304 305 306 307 309 312 314 313 312 313 314 315 316 317 319 323 326 322 316 317 317 296 263 252 252 251 250 248 245 242 242 241 238 237 237 236 234 231 229 228 227 226 226 227 229 230 230 231 233 235 236 236 236 234 228 224
303 304 304 304 305 306 307 309 310 310 309 309 310 311 312 313 313 313 312 309 303 297 294 293 293 296 300 301 301 300 302 305 307 308 311 313 313 313 314 315 316 318 319 321 324 327 326 321 319 322 316 284 260 257 249 241 241 242 241 241 240 237 237 237 236 233 230 229 229 228 228 229 230 231 232 232 233 234 235 236 235 234 232 229 224
303 304 304 304 305 307 308 309 310 309 310 310 311 312 313 313 314 314 313 309 303 297 293 290 289 292 297 299 299 298 299 301 303 305 310 314 314 314 315 317 319 320 322 323 326 329 330 327 323 326 328 311 282 276 255 235 231 238 241 240 238 235 235 235 234 233 230 228 228 229 230 232 233 233 234 234 234 235 236 236 236 233 231 229 224
303 303 304 305 307 308 309 309 309 309 310 311 312 313 313 313 314 313 311 308 303 297 292 288 286 288 292 294 294 293 294 296 300 304 310 314 316 316 316 318 321 323 325 326 327 330 333 333 329 328 332 329 311 297 268 238 226 227 236 240 237 231 230 231 230 229 226 224 224 226 228 230 232 234 235 235 234 234 235 235 235 233 231 230 226
303 304 305 307 308 308 308 308 308 309 310 311 311 312 312 313 313 312 308 305 301 297 292 287 283 284 286 287 289 292 293 295 300 304 307 311 314 316 317 319 322 325 326 327 329 332 336 338 336 333 336 338 332 311 273 244 227 220 227 236 235 226 223 226 226 224 222 221 222 224 226 229 231 233 233 233 232 231 232 233 234 232 230 229 228
304 305 306 307 308 307 307 307 308 309 309 309 310 311 312 313 312 310 305 302 299 297 292 285 280 281 282 283 286 290 292 294 298 302 304 308 311 313 316 318 321 324 326 327 329 333 337 340 342 341 340 341 338 323 276 244 229 218 216 224 229 225 220 219 220 219 219 220 222 225 226 229 230 230 231 231 230 229 230 230 231 231 230 228 227
306 306 306 306 306 306 305 306 307 308 308 308 309 310 311 312 311 307 303 299 296 295 290 282 278 279 281 282 283 287 289 291 294 299 303 307 309 311 313 318 320 322 325 327 328 332 337 340 343 345 343 340 338 329 284 240 229 219 209 209 214 217 216 212 212 214 215 215 218 221 223 225 226 226 229 231 229 227 227 227 227 227 227 226 227
305 304 304 304 303 303 304 305 306 306 307 307 308 309 311 312 309 305 301 297 293 290 286 281 278 279 279 280 283 287 289 291 293 297 302 306 309 310 312 317 321 321 322 324 325 329 334 338 341 345 345 341 340 337 318 246 227 221 211 201 198 201 206 207 208 212 215 212 207 206 210 215 217 217 221 226 227 225 224 224 224 224 225 225 226
303 302 302 301 301 302 303 304 305 305 305 307 308 309 311 312 309 304 299 294 289 285 281 278 278 278 277 278 284 289 293 294 295 297 303 307 311 312 314 319 322 320 319 321 323 325 330 335 339 342 345 345 344 342 339 307 229 217 215 206 193 190 198 205 207 209 211 208 201 198 202 207 208 207 211 216 218 220 221 223 224 225 227 228 228
300 300 300 299 300 301 302 303 305 305 305 307 308 309 311 311 308 303 298 290 283 280 277 274 274 275 276 278 285 291 295 299 300 302 307 312 314 315 317 320 321 320 318 320 322 322 325 331 336 340 343 346 346 346 346 338 287 218 213 214 206 194 192 199 207 211 212 209 203 201 205 207 204 203 207 210 212 214 218 221 224 225 227 229 229
299 299 298 298 299 300 302 303 304 304 305 306 307 308 310 311 309 306 297 284 274 272 270 268 269 273 275 278 284 289 293 298 302 306 310 314 314 315 316 317 318 319 318 319 320 321 321 325 331 336 340 344 347 349 350 348 334 279 217 210 217 213 200 197 205 212 218 219 209 200 203 205 202 200 204 208 210 211 212 216 221 224 225 227 227
298 297 296 297 298 300 302 303 303 303 304 305 305 307 309 310 310 307 296 278 267 263 262 261 265 271 274 278 285 290 292 295 299 303 307 310 310 311 313 314 315 316 317 317 317 318 318 319 324 331 336 341 346 350 352 353 352 336 303 209 203 214 212 207 206 208 214 219 214 201 199 203 201 199 201 204 208 211 213 216 219 222 225 228 229
296 294 295 297 299 300 301 301 302 302 303 304 305 307 307 307 308 304 289 273 263 258 257 260 264 269 273 280 289 296 296 295 297 300 303 306 307 308 310 312 313 314 315 316 315 315 314 315 319 326 332 336 340 346 350 354 358 355 343 329 208 192 202 210 213 210 210 212 212 210 210 209 206 205 206 205 206 210 213 216 219 221 223 227 230
293 293 295 297 299 299 300 300 301 302 302 303 304 305 304 305 306 300 281 268 262 258 257 259 261 265 273 282 291 298 300 298 298 299 301 303 306 308 310 311 312 313 313 314 314 313 312 313 316 322 328 332 335 339 344 349 355 359 357 350 338 283 195 198 208 214 214 210 207 209 215 217 215 215 215 212 210 211 212 214 216 216 218 221 225
291 292 295 297 297 297 298 298 299 300 301 302 303 303 303 303 302 293 276 267 265 263 261 259 260 266 274 282 291 298 301 299 298 298 300 302 305 308 311 312 313 314 314 315 314 313 311 312 315 320 325 330 333 335 338 343 348 352 356 358 353 342 316 225 203 206 212 212 208 206 209 211 212 212 212 211 212 214 216 217 216 215 216 219 222
290 292 294 294 294 294 295 297 298 298 300 301 302 302 301 301 296 285 274 269 267 265 264 264 264 268 274 281 289 294 295 295 296 297 300 303 306 308 311 311 311 312 313 313 314 314 312 312 315 319 323 327 330 332 333 335 339 342 346 349 352 353 348 334 293 220 207 208 209 210 211 211 211 212 212 211 210 211 214 217 218 219 221 222 222
289 291 292 292 292 292 294 296 297 297 298 299 300 300 300 298 291 280 272 270 269 268 269 271 271 273 277 282 287 290 292 293 295 297 301 304 305 305 306 307 307 308 309 310 311 312 312 312 314 317 321 324 326 328 329 329 330 332 335 337 340 343 347 347 340 329 302 228 211 212 215 217 218 219 222 223 222 218 216 215 216 218 219 220 220
288 290 291 291 291 292 294 295 296 294 294 295 296 297 297 295 289 283 277 272 269 268 269 271 273 276 279 283 287 292 296 297 297 297 299 301 301 302 303 304 305 304 303 303 303 304 305 307 309 311 314 317 319 320 322 323 324 325 326 329 330 331 332 336 338 337 335 334 323 278 236 226 224 224 225 227 229 229 228 226 224 222 222 221 222
289 290 291 291 291 292 293 293 293 291 290 291 292 294 294 292 289 286 282 280 280 280 277 275 275 278 280 283 287 293 297 297 296 295 296 296 297 298 299 300 299 298 296 296 295 295 296 297 300 302 305 308 311 312 313 314 316 318 318 319 321 322 321 322 323 326 327 328 329 327 319 298 267 245 234 231 230 230 231 232 231 231 230 229 229
289 290 291 291 291 291 291 292 291 290 289 289 290 291 290 290 289 287 283 281 282 284 281 279 279 278 279 281 285 291 294 295 293 292 292 292 292 292 293 293 293 293 292 291 291 291 292 292 293 295 298 301 304 306 307 308 309 310 310 310 311 311 312 312 312 313 314 314 314 314 314 313 308 297 279 261 247 239 234 233 232 231 231 231 232
289 289 290 290 290 290 290 291 290 289 289 289 289 288 287 286 285 283 280 278 279 282 283 284 283 281 281 283 286 290 293 293 292 291 291 290 290 289 290 290 291 290 289 288 288 289 291 292 292 291 292 294 296 298 300 301 301 302 302 303 303 303 304 304 304 303 303 303 303 301 300 299 299 299 297 291 283 272 260 251 246 241 237 235 234
288 289 289 289 288 288 288 289 288 288 288 289 289 287 287 285 283 281 281 282 284 286 288 288 287 286 286 287 288 291 292 293 293 293 292 292 292 291 291 291 290 290 289 288 287 287 288 289 291 292 291 291 292 292 293 294 294 294 295 295 296 297 297 297 297 297 296 296 296 295 294 292 291 290 289 288 287 286 282 276 271 265 258 252 247
287 288 288 288 287 287 287 286 285 284 286 287 287 286 285 286 286 287 287 287 287 287 287 286 286 286 286 286 288 289 290 291 291 291 291 291 291 290 290 290 289 289 288 288 287 287 287 287 288 290 291 290 290 290 290 290 290 290 290 289 289 289 290 290 291 292 292 292 292 291 290 290 288 287 285 284 282 281 280 279 278 275 272 269 265
285 286 286 287 287 287 286 285 284 283 284 285 286 285 283 283 285 286 286 286 286 286 285 285 285 285 285 285 285 286 286 287 287 287 287 287 287 287 287 287 287 286 286 286 286 286 286 286 286 287 287 288 288 288 288 288 288 288 288 287 286 285 285 285 284 285 285 286 287 287 287 287 287 286 285 284 282 280 278 277 277 275 274 273 272
284 284 284 284 285 286 286 287 286 285 285 285 284 283 283 282 281 281 282 282 283 283 283 284 284 284 284 284 283 283 283 283 282 282 282 283 284 284 285 285 285 285 285 285 285 285 285 285 286 286 286 286 286 287 287 287 287 287 287 287 287 286 285 284 283 283 282 281 281 282 283 283 283 284 283 283 283 282 279 277 276 275 275 274 273
282 281 281 281 282 284 285 286 287 287 286 285 284 283 283 283 282 281 281 281 282 283 284 284 284 283 283 282 282 282 281 281 281 281 281 281 282 283 284 284 284 284 284 284 284 284 284 284 285 285 286 286 286 286 286 286 286 286 287 287 287 287 286 285 284 283 283 281 280 279 279 279 279 279 279 280 280 280 280 279 277 276 274 273 272
279 279 279 279 280 281 281 282 283 284 284 284 283 282 282 283 283 283 283 283 284 284 285 285 285 284 284 283 282 282 282 282 282 281 281 281 281 282 282 283 283 284 284 284 283 283 283 284 284 284 285 285 285 285 285 286 286 286 286 286 286 285 285 285 284 283 282 281 280 279 277 277 276 276 276 276 275 275 276 276 275 275 275 274 273
279 279 279 279 280 280 280 279 279 280 281 282 281 281 280 280 281 283 284 285 285 285 284 284 283 283 283 282 282 282 282 282 282 282 283 283 283 283 283 284 284 284 284 285 284 284 283 283 284 284 284 284 284 285 285 285 284 284 284 284 284 284 283 283 282 282 281 280 280 279 277 276 274 273 273 273 273 273 272 272 272 272 271 271 271
280 279 279 279 280 280 280 279 279 279 279 279 280 280 280 280 282 283 284 285 285 285 284 284 283 283 282 282 281 281 281 282 283 283 284 284 284 284 285 285 285 285 285 285 285 284 284 283 283 283 283 283 283 283 283 283 283 283 283 282 282 282 282 281 281 280 279 279 278 277 277 276 274 273 271 270 270 270 270 270 270 270 270 269 268
279 279 279 279 279 280 280 281 281 281 280 280 280 280 281 282 283 284 284 284 284 284 284 283 283 283 282 282 282 282 282 282 283 283 283 283 283 284 284 284 284 285 285 285 285 285 285 284 283 283 282 282 281 281 281 281 280 280 280 280 280 280 280 280 279 279 278 278 277 276 275 275 274 273 271 270 269 267 267 267 267 267 268 268 268
279 279 280 280 280 281 282 283 283 282 282 282 282 283 283 284 284 284 284 284 284 284 284 283 283 282 282 282 282 282 282 282 282 282 282 283 283 283 283 284 284 284 284 284 284 284 284 284 283 283 282 281 280 280 279 279 278 278 278 278 277 277 277 277 277 277 277 277 276 276 275 274 273 272 271 270 268 267 265 264 264 263 263 264 264
Height
5877 5875 5873 5871 5869 5867 5865 5863 5860 5858 5856 5853 5851 5848 5845 5842 5840 5837 5835 5832 5829 5826 5823 5820 5817 5814 5811 5808 5805 5802 5799 5796 5793 5791 5788 5786 5783 5781 5780 5779 5778 5776 5774 5772 5770 5770 5770 5770 5770 5770 5771 5773 5774 5775 5776 5778 5780 5781 5783 5784 5785 5788 5792 5794 5798 5804 5806 5806 5809 5812 5812 5813 5815 5818 5820 5822 5825 5826 5828 5831 5834 5836 5840 5843 5846
5873 5871 5869 5867 5865 5863 5861 5859 5857 5854 5852 5849 5847 5844 5841 5838 5835 5832 5830 5827 5824 5821 5818 5815 5812 5809 5806 5803 5801 5798 5795 5792 5789 5786 5784 5781 5778 5776 5774 5772 5771 5769 5767 5765 5763 5761 5761 5762 5763 5763 5763 5765 5767 5768 5770 5772 5774 5775 5777 5778 5781 5784 5787 5789 5792 5797 5800 5801 5804 5806 5806 5807 5810 5813 5814 5817 5820 5821 5823 5826 5829 5832 5836 5839 5842
5870 5867 5865 5863 5861 5859 5857 5854 5852 5850 5847 5845 5842 5840 5837 5834 5831 5828 5825 5822 5819 5816 5813 5810 5807 5803 5800 5798 5795 5792 5790 5786 5784 5781 5779 5776 5773 5770 5768 5766 5764 5763 5760 5758 5756 5754 5753 5753 5754 5755 5756 5758 5760 5761 5763 5766 5768 5770 5771 5773 5776 5778 5781 5784 5786 5790 5794 5796 5797 5798 5800 5802 5805 5808 5809 5812 5815 5817 5819 5822 5825 5828 5832 5835 5837
5866 5863 5861 5858 5856 5854 5852 5850 5847 5845 5843 5840 5838 5835 5832 5829 5826 5823 5820 5817 5814 5811 5808 5805 5802 5798 5795 5792 5790 5787 5784 5781 5778 5776 5773 5771 5768 5765 5763 5760 5758 5756 5754 5751 5750 5748 5746 5746 5746 5747 5748 5751 5753 5755 5756 5759 5761 5764 5766 5767 5770 5772 5775 5778 5781 5783 5787 5790 5791 5792 5794 5797 5800 5802 5803 5806 5810 5813 5816 5818 5821 5824 5827 5830 5833
5861 5859 5857 5854 5852 5850 5848 5845 5842 5840 5838 5835 5833 5830 5827 5824 5821 5818 5815 5812 5809 5806 5803 5800 5797 5794 5790 5787 5785 5781 5778 5775 5772 5770 5767 5765 5763 5760 5757 5755 5752 5750 5748 5746 5744 5742 5740 5739 5739 5739 5741 5743 5745 5748 5750 5751 5754 5757 5759 5762 5764 5767 5770 5772 5775 5778 5780 5783 5785 5787 5789 5791 5794 5796 5798 5802 5806 5809 5812 5815 5817 5820 5823 5825 5828
5857 5855 5852 5850 5848 5845 5843 5840 5838 5835 5833 5830 5828 5825 5822 5819 5816 5813 5810 5807 5804 5801 5798 5795 5792 5789 5785 5782 5779 5776 5773 5770 5766 5764 5761 5759 5757 5754 5752 5749 5747 5744 5742 5740 5738 5735 5734 5732 5732 5732 5733 5735 5737 5740 5742 5744 5747 5751 5753 5755 5759 5762 5763 5765 5769 5773 5775 5777 5779 5781 5783 5786 5789 5791 5793 5797 5801 5805 5808 5811 5814 5816 5819 5821 5823
5852 5850 5848 5846 5843 5841 5838 5835 5833 5830 5828 5825 5823 5820 5817 5814 5811 5808 5805 5802 5799 5795 5792 5789 5786 5783 5780 5777 5774 5771 5768 5764 5761 5758 5756 5753 5751 5748 5746 5744 5741 5739 5736 5734 5731 5729 5727 5726 5726 5725 5726 5728 5730 5732 5735 5737 5740 5744 5747 5750 5753 5756 5758 5760 5763 5766 5770 5772 5774 5776 5778 5781 5784 5786 5788 5791 5795 5800 5804 5808 5811 5813 5815 5817 5818
5848 5846 5843 5841 5839 5836 5833 5830 5828 5825 5823 5820 5817 5814 5811 5809 5806 5802 5799 5796 5793 5790 5787 5784 5781 5778 5775 5771 5768 5765 5762 5759 5756 5753 5751 5749 5746 5744 5741 5739 5736 5733 5730 5728 5726 5723 5721 5720 5719 5719 5719 5721 5724 5726 5728 5731 5735 5738 5742 5744 5747 5750 5752 5754 5756 5760 5764 5766 5769 5771 5773 5776 5780 5782 5783 5786 5790 5796 5801 5805 5807 5808 5810 5812 5813
5843 5841 5839 5837 5834 5831 5828 5826 5823 5820 5817 5815 5812 5809 5806 5803 5800 5797 5794 5791 5788 5785 5782 5779 5776 5773 5769 5766 5763 5760 5757 5754 5751 5748 5747 5744 5742 5739 5737 5734 5731 5728 5725 5723 5721 5718 5715 5714 5714 5713 5713 5715 5717 5719 5721 5723 5726 5730 5734 5736 5739 5742 5745 5747 5750 5753 5757 5760 5763 5764 5766 5770 5775 5777 5778 5781 5786 5791 5795 5798 5800 5802 5804 5806 5807
5839 5837 5834 5832 5829 5826 5824 5821 5818 5815 5813 5810 5807 5804 5801 5798 5795 5792 5789 5786 5783 5780 5777 5773 5770 5767 5764 5761 5757 5754 5751 5748 5746 5743 5742 5740 5737 5735 5732 5729 5726 5723 5720 5718 5716 5714 5711 5709 5709 5708 5708 5709 5712 5714 5717 5717 5719 5722 5726 5729 5733 5735 5737 5740 5744 5747 5750 5754 5757 5758 5760 5764 5769 5772 5774 5777 5781 5784 5787 5791 5794 5797 5799 5801 5803
5834 5832 5830 5827 5825 5822 5819 5816 5813 5811 5808 5805 5802 5798 5795 5792 5789 5786 5783 5780 5777 5774 5771 5768 5765 5762 5759 5756 5752 5749 5746 5744 5741 5739 5737 5736 5733 5731 5728 5725 5721 5718 5715 5713 5711 5710 5707 5705 5704 5704 5704 5705 5707 5710 5712 5712 5713 5716 5719 5724 5727 5729 5731 5734 5738 5740 5743 5747 5750 5752 5755 5759 5763 5767 5769 5772 5775 5778 5781 5786 5790 5792 5794 5797 5800
5830 5827 5825 5823 5820 5817 5815 5812 5809 5806 5803 5800 5797 5793 5789 5787 5784 5781 5778 5775 5772 5769 5766 5763 5760 5757 5754 5751 5747 5744 5742 5739 5736 5734 5733 5731 5729 5726 5723 5720 5717 5714 5712 5709 5707 5705 5703 5701 5700 5700 5700 5701 5703 5704 5705 5707 5709 5711 5714 5717 5721 5723 5725 5728 5731 5734 5736 5740 5744 5747 5751 5755 5758 5761 5764 5767 5770 5773 5776 5780 5784 5787 5790 5794 5796
5825 5823 5821 5818 5815 5813 5810 5807 5805 5802 5799 5796 5792 5788 5784 5782 5779 5776 5773 5770 5767 5764 5761 5758 5755 5752 5749 5746 5743 5740 5738 5735 5733 5731 5729 5727 5725 5722 5719 5716 5713 5711 5708 5706 5703 5701 5699 5697 5697 5697 5696 5697 5697 5698 5700 5701 5704 5706 5709 5712 5714 5717 5720 5723 5726 5728 5731 5734 5738 5742 5746 5749 5752 5756 5760 5762 5765 5768 5770 5774 5778 5782 5786 5788 5791
5821 5818 5816 5813 5811 5808 5806 5803 5800 5797 5794 5791 5788 5784 5780 5777 5774 5771 5768 5765 5762 5759 5756 5753 5750 5747 5744 5741 5739 5736 5734 5732 5729 5727 5726 5724 5721 5719 5716 5713 5710 5707 5705 5702 5699 5697 5695 5693 5692 5692 5692 5693 5693 5694 5696 5698 5700 5702 5705 5707 5709 5712 5714 5717 5721 5724 5726 5730 5734 5737 5741 5744 5747 5751 5755 5758 5761 5763 5766 5769 5773 5777 5781 5783 5786
5816 5813 5810 5808 5806 5803 5801 5798 5795 5792 5789 5786 5783 5780 5776 5773 5770 5767 5764 5761 5757 5754 5751 5748 5745 5742 5739 5737 5735 5733 5730 5728 5726 5724 5722 5721 5718 5715 5713 5710 5707 5704 5701 5698 5696 5693 5691 5689 5689 5688 5689 5689 5689 5691 5693 5694 5696 5698 5700 5703 5705 5707 5709 5712 5716 5719 5721 5725 5729 5732 5736 5739 5742 5746 5750 5753 5756 5759 5761 5763 5767 5771 5775 5777 5779
5811 5808 5805 5803 5800 5798 5795 5793 5790 5787 5784 5781 5778 5775 5772 5768 5765 5762 5759 5756 5752 5750 5747 5744 5741 5738 5735 5733 5731 5729 5727 5725 5723 5721 5719 5718 5715 5713 5710 5707 5705 5702 5698 5695 5693 5690 5688 5686 5684 5684 5684 5684 5685 5686 5688 5690 5692 5693 5695 5698 5700 5702 5705 5708 5710 5713 5716 5719 5723 5727 5730 5733 5736 5740 5745 5749 5752 5754 5755 5758 5761 5765 5768 5770 5773
5805 5803 5800 5798 5795 5793 5790 5788 5785 5782 5779 5776 5773 5770 5766 5763 5760 5757 5754 5751 5748 5745 5743 5740 5737 5734 5731 5729 5727 5725 5723 5721 5720 5718 5717 5715 5713 5710 5707 5704 5702 5699 5696 5692 5690 5687 5685 5682 5680 5680 5680 5680 5680 5681 5682 5684 5686 5688 5690 5692 5694 5697 5700 5703 5705 5707 5710 5713 5717 5721 5724 5727 5731 5735 5739 5743 5746 5747 5749 5752 5756 5759 5762 5765 5769
5801 5798 5795 5793 5790 5788 5786 5783 5780 5778 5775 5771 5768 5764 5761 5758 5755 5752 5749 5746 5743 5741 5738 5736 5733 5730 5728 5726 5724 5722 5719 5718 5716 5715 5714 5712 5710 5707 5705 5702 5700 5697 5694 5690 5687 5685 5682 5679 5677 5675 5675 5675 5676 5676 5677 5679 5681 5683 5684 5686 5689 5692 5695 5697 5699 5702 5706 5708 5712 5715 5718 5722 5725 5730 5734 5737 5740 5742 5744 5747 5751 5753 5755 5760 5765
5796 5794 5791 5788 5785 5783 5781 5778 5776 5773 5770 5766 5763 5760 5757 5753 5751 5748 5745 5741 5739 5736 5734 5732 5729 5727 5725 5723 5721 5719 5717 5715 5714 5712 5711 5709 5707 5705 5702 5700 5697 5695 5691 5688 5685 5682 5679 5677 5674 5672 5671 5671 5672 5673 5673 5674 5676 5678 5679 5681 5683 5687 5690 5691 5694 5697 5701 5704 5707 5711 5714 5717 5721 5725 5729 5732 5735 5738 5740 5743 5745 5746 5750 5756 5760
5792 5789 5786 5783 5780 5778 5776 5773 5771 5768 5765 5761 5759 5756 5752 5749 5746 5743 5740 5737 5734 5732 5729 5727 5726 5723 5722 5721 5719 5717 5715 5713 5711 5709 5708 5706 5704 5702 5699 5697 5695 5692 5689 5686 5683 5680 5677 5674 5672 5669 5668 5667 5668 5669 5670 5670 5671 5672 5674 5675 5677 5681 5684 5686 5689 5693 5696 5699 5703 5706 5710 5713 5716 5720 5723 5726 5729 5732 5735 5737 5739 5741 5746 5751 5755
5787 5784 5780 5777 5775 5773 5771 5768 5765 5762 5759 5756 5753 5751 5748 5744 5740 5738 5735 5733 5730 5727 5725 5723 5722 5720 5719 5718 5717 5715 5713 5711 5708 5706 5705 5703 5701 5699 5696 5695 5693 5690 5687 5683 5681 5679 5676 5672 5669 5667 5665 5664 5664 5664 5665 5665 5666 5668 5669 5670 5672 5676 5679 5682 5685 5689 5693 5696 5699 5702 5705 5708 5711 5714 5718 5721 5723 5726 5729 5732 5734 5737 5742 5746 5749
5780 5778 5775 5773 5770 5768 5765 5763 5760 5757 5754 5751 5748 5745 5742 5738 5735 5732 5730 5727 5725 5723 5721 5720 5719 5717 5716 5715 5714 5712 5710 5709 5706 5704 5702 5700 5698 5696 5694 5692 5690 5688 5685 5682 5678 5676 5673 5670 5667 5665 5663 5661 5660 5660 5661 5661 5662 5664 5664 5665 5668 5672 5675 5677 5681 5685 5688 5692 5695 5697 5701 5704 5707 5710 5713 5716 5719 5722 5724 5727 5729 5732 5736 5740 5744
5774 5772 5770 5768 5765 5762 5759 5757 5754 5752 5749 5745 5742 5739 5736 5733 5730 5727 5725 5722 5720 5718 5717 5716 5715 5714 5713 5711 5710 5709 5708 5706 5704 5701 5700 5698 5696 5694 5692 5690 5688 5685 5683 5680 5676 5674 5671 5668 5665 5662 5660 5659 5657 5656 5657 5658 5659 5660 5661 5662 5665 5668 5671 5673 5677 5681 5684 5687 5690 5693 5696 5700 5703 5706 5708 5711 5714 5716 5719 5721 5724 5727 5730 5734 5738
5769 5767 5765 5762 5759 5757 5754 5751 5749 5746 5743 5740 5737 5734 5731 5728 5725 5723 5721 5718 5716 5714 5713 5712 5711 5711 5709 5708 5706 5704 5704 5702 5700 5698 5698 5697 5695 5693 5690 5688 5686 5684 5681 5678 5675 5672 5670 5667 5664 5661 5658 5656 5655 5653 5654 5655 5656 5657 5658 5659 5661 5664 5667 5669 5672 5676 5679 5681 5684 5687 5691 5694 5697 5700 5703 5705 5708 5710 5712 5715 5718 5721 5725 5729 5733
5764 5761 5759 5756 5754 5751 5748 5746 5743 5740 5737 5734 5731 5729 5726 5723 5721 5719 5716 5714 5712 5710 5709 5708 5707 5707 5706 5704 5702 5701 5700 5699 5697 5696 5695 5694 5692 5691 5688 5686 5684 5682 5679 5676 5673 5671 5669 5666 5663 5660 5657 5655 5653 5652 5651 5652 5653 5654 5655 5656 5658 5661 5663 5665 5668 5671 5673 5677 5680 5683 5686 5689 5692 5694 5696 5698 5700 5703 5706 5710 5713 5717 5720 5723 5726
5758 5756 5754 5751 5749 5746 5743 5741 5738 5735 5732 5729 5726 5724 5721 5718 5716 5714 5712 5710 5708 5706 5705 5704 5704 5703 5702 5700 5700 5699 5698 5696 5695 5693 5692 5691 5690 5688 5686 5684 5682 5680 5678 5674 5671 5669 5667 5664 5661 5658 5656 5653 5652 5650 5649 5649 5650 5652 5652 5653 5655 5658 5660 5661 5664 5666 5669 5672 5675 5678 5681 5684 5686 5688 5690 5693 5695 5699 5702 5706 5709 5712 5716 5719 5721
5753 5751 5748 5746 5743 5741 5739 5736 5733 5730 5727 5724 5721 5719 5717 5714 5712 5710 5708 5706 5704 5702 5701 5700 5700 5700 5699 5697 5696 5696 5695 5693 5691 5690 5689 5689 5687 5686 5684 5682 5680 5678 5676 5673 5670 5668 5666 5663 5660 5658 5655 5653 5651 5649 5648 5648 5648 5649 5650 5650 5651 5654 5656 5658 5660 5662 5664 5666 5669 5672 5675 5678 5681 5684 5687 5689 5692 5695 5698 5701 5704 5707 5711 5714 5717
5748 5745 5743 5740 5738 5736 5734 5731 5728 5725 5722 5719 5716 5714 5712 5709 5707 5705 5703 5701 5699 5698 5697 5697 5696 5696 5695 5694 5693 5692 5691 5690 5689 5688 5687 5686 5684 5683 5681 5680 5678 5676 5674 5672 5669 5667 5665 5662 5660 5658 5656 5653 5650 5648 5647 5646 5646 5647 5648 5648 5648 5650 5652 5655 5658 5659 5660 5662 5664 5667 5671 5674 5677 5679 5682 5685 5688 5691 5694 5697 5699 5702 5706 5709 5713
5742 5740 5738 5735 5733 5731 5728 5726 5723 5720 5717 5714 5712 5709 5707 5704 5702 5700 5698 5696 5694 5693 5693 5693 5693 5692 5692 5691 5690 5689 5688 5687 5686 5685 5684 5683 5682 5680 5679 5678 5676 5674 5672 5671 5668 5666 5664 5662 5659 5657 5655 5653 5650 5648 5646 5645 5645 5645 5646 5646 5646 5647 5648 5651 5654 5656 5657 5659 5661 5664 5667 5670 5673 5674 5676 5680 5683 5686 5689 5692 5695 5698 5701 5705 5709
5736 5734 5732 5730 5727 5725 5723 5721 5718 5715 5712 5709 5707 5704 5702 5700 5696 5694 5692 5691 5689 5689 5689 5689 5689 5689 5689 5688 5687 5686 5685 5684 5683 5682 5681 5680 5679 5678 5677 5675 5674 5672 5671 5669 5667 5665 5663 5661 5659 5657 5655 5653 5650 5648 5645 5644 5644 5644 5644 5644 5644 5645 5646 5648 5651 5653 5655 5656 5659 5661 5664 5667 5669 5670 5672 5675 5678 5681 5685 5688 5691 5694 5697 5700 5704
5731 5729 5727 5725 5722 5720 5718 5716 5713 5710 5708 5705 5702 5699 5697 5695 5691 5688 5687 5685 5684 5684 5685 5685 5686 5686 5686 5685 5685 5684 5683 5682 5681 5679 5678 5678 5677 5676 5674 5673 5672 5671 5669 5668 5666 5664 5662 5661 5659 5657 5655 5653 5651 5648 5646 5644 5643 5643 5642 5642 5643 5643 5644 5645 5648 5650 5652 5654 5656 5658 5660 5663 5665 5667 5670 5672 5675 5678 5681 5684 5686 5689 5692 5694 5698
5725 5723 5721 5719 5717 5715 5712 5710 5708 5706 5703 5701 5698 5695 5692 5690 5687 5684 5682 5681 5681 5681 5682 5683 5683 5683 5683 5682 5682 5682 5681 5680 5679 5678 5676 5675 5674 5673 5672 5671 5670 5669 5668 5667 5665 5663 5661 5660 5658 5657 5655 5653 5651 5649 5647 5645 5643 5642 5642 5641 5641 5641 5642 5643 5645 5647 5649 5651 5653 5655 5657 5660 5662 5664 5666 5668 5670 5673 5676 5679 5682 5685 5687 5690 5693
5720 5718 5716 5714 5712 5710 5708 5705 5703 5701 5699 5696 5694 5691 5688 5685 5684 5682 5680 5678 5678 5679 5679 5680 5680 5680 5680 5680 5679 5679 5678 5677 5677 5675 5674 5673 5672 5671 5670 5669 5667 5666 5666 5665 5664 5662 5660 5659 5658 5656 5655 5653 5651 5649 5647 5646 5644 5643 5641 5640 5640 5640 5640 5641 5643 5645 5646 5648 5649 5651 5654 5656 5659 5660 5662 5664 5666 5668 5670 5674 5677 5680 5682 5685 5687
5714 5712 5710 5708 5706 5705 5703 5701 5699 5697 5694 5692 5690 5687 5684 5681 5681 5680 5677 5676 5676 5677 5677 5677 5677 5677 5677 5677 5677 5677 5676 5675 5674 5673 5672 5671 5669 5668 5667 5666 5665 5664 5663 5663 5662 5661 5659 5658 5656 5655 5654 5653 5651 5650 5648 5646 5645 5644 5642 5641 5640 5639 5639 5640 5641 5643 5644 5645 5646 5648 5650 5652 5654 5656 5658 5660 5662 5665 5667 5670 5672 5675 5677 5680 5682
5708 5706 5704 5703 5701 5699 5698 5696 5694 5692 5690 5688 5686 5683 5681 5679 5678 5676 5675 5674 5675 5675 5675 5674 5674 5674 5674 5674 5674 5674 5673 5672 5671 5671 5669 5668 5667 5666 5665 5664 5663 5662 5661 5661 5660 5659 5658 5657 5655 5654 5654 5653 5651 5650 5649 5647 5646 5644 5643 5642 5641 5640 5639 5639 5640 5641 5642 5643 5644 5644 5646 5648 5651 5652 5654 5656 5659 5661 5664 5666 5668 5670 5673 5675 5677
5702 5701 5699 5697 5696 5694 5693 5691 5689 5688 5686 5684 5682 5680 5678 5676 5675 5674 5673 5673 5673 5672 5672 5672 5672 5671 5672 5672 5671 5671 5670 5669 5668 5668 5667 5666 5665 5663 5662 5661 5661 5660 5660 5659 5658 5658 5657 5656 5654 5653 5653 5652 5651 5650 5649 5648 5646 5645 5644 5643 5642 5641 5640 5639 5639 5640 5641 5641 5641 5642 5643 5645 5647 5649 5650 5653 5655 5656 5658 5661 5663 5666 5668 5670 5672
5696 5695 5694 5692 5691 5689 5688 5686 5684 5683 5681 5680 5678 5676 5675 5674 5672 5671 5670 5670 5670 5670 5669 5669 5669 5669 5669 5669 5668 5668 5667 5666 5665 5665 5664 5663 5662 5661 5660 5660 5659 5658 5658 5657 5657 5656 5655 5654 5653 5652 5652 5651 5650 5649 5648 5648 5647 5646 5645 5644 5643 5642 5641 5640 5640 5640 5640 5640 5640 5640 5641 5642 5644 5645 5647 5649 5651 5653 5655 5656 5658 5660 5662 5664 5666
5691 5690 5688 5687 5686 5684 5682 5681 5679 5678 5677 5676 5674 5673 5672 5671 5669 5668 5667 5667 5667 5667 5666 5666 5666 5666 5665 5665 5665 5664 5663 5663 5662 5662 5661 5661 5660 5658 5658 5657 5656 5656 5655 5655 5655 5654 5654 5653 5652 5651 5650 5650 5649 5649 5648 5647 5646 5645 5645 5644 5643 5643 5642 5641 5641 5640 5640 5639 5639 5639 5640 5640 5641 5643 5644 5646 5647 5649 5651 5653 5655 5656 5658 5659 5661
5686 5684 5683 5682 5680 5679 5677 5676 5674 5673 5672 5672 5671 5670 5668 5667 5666 5665 5664 5664 5663 5663 5663 5662 5662 5662 5662 5661 5661 5660 5660 5659 5659 5658 5658 5658 5657 5656 5655 5654 5654 5653 5653 5653 5653 5652 5652 5652 5651 5650 5649 5648 5648 5647 5647 5646 5645 5645 5644 5644 5643 5643 5642 5642 5641 5641 5640 5640 5639 5639 5639 5640 5640 5641 5642 5643 5644 5645 5647 5649 5650 5652 5654 5655 5657
5680 5679 5677 5676 5675 5674 5672 5671 5670 5669 5668 5667 5667 5666 5664 5663 5663 5662 5661 5660 5660 5659 5659 5659 5658 5658 5658 5658 5657 5657 5656 5656 5655 5655 5655 5654 5654 5653 5652 5652 5651 5651 5650 5650 5650 5650 5650 5649 5649 5648 5648 5647 5646 5646 5645 5645 5644 5644 5643 5642 5642 5642 5642 5641 5641 5641 5641 5641 5640 5640 5640 5640 5640 5640 5641 5642 5642 5643 5644 5645 5647 5648 5649 5651 5652
5675 5674 5672 5671 5670 5669 5668 5666 5665 5664 5664 5663 5663 5661 5660 5660 5659 5659 5658 5657 5657 5656 5656 5655 5654 5654 5654 5654 5653 5653 5652 5652 5651 5650 5650 5650 5650 5649 5649 5649 5648 5648 5647 5647 5647 5647 5646 5646 5646 5646 5646 5645 5644 5644 5643 5643 5643 5642 5642 5641 5641 5640 5640 5640 5640 5640 5640 5640 5640 5640 5640 5640 5640 5640 5640 5641 5641 5642 5643 5644 5645 5645 5646 5646 5648
5670 5669 5668 5666 5665 5664 5663 5662 5661 5660 5659 5659 5658 5657 5656 5655 5655 5655 5654 5653 5653 5652 5651 5651 5650 5650 5649 5649 5649 5648 5648 5647 5646 5646 5645 5645 5645 5645 5645 5645 5644 5644 5644 5643 5643 5643 5643 5642 5642 5642 5642 5642 5642 5641 5641 5640 5640 5640 5640 5639 5639 5638 5638 5638 5637 5638 5638 5638 5638 5638 5639 5639 5639 5639 5639 5639 5640 5641 5641 5642 5642 5643 5643 5643 5644
5665 5664 5663 5662 5661 5660 5659 5658 5657 5657 5656 5655 5654 5653 5652 5651 5651 5650 5649 5649 5648 5648 5647 5646 5646 5645 5645 5644 5644 5644 5643 5643 5643 5642 5642 5641 5641 5641 5640 5640 5640 5640 5640 5639 5639 5639 5639 5638 5638 5638 5638 5638 5638 5638 5637 5637 5637 5637 5637 5637 5637 5636 5636 5636 5635 5635 5635 5635 5635 5635 5635 5636 5636 5637 5637 5637 5638 5638 5639 5639 5640 5640 5641 5642 5642
5660 5659 5658 5657 5656 5656 5655 5654 5653 5653 5652 5651 5650 5649 5648 5648 5647 5646 5645 5644 5643 5643 5642 5642 5641 5641 5640 5640 5640 5639 5639 5639 5639 5639 5638 5638 5637 5637 5636 5636 5636 5636 5636 5635 5635 5635 5634 5634 5634 5634 5634 5634 5634 5634 5634 5633 5633 5633 5633 5633 5633 5633 5633 5633 5633 5633 5632 5632 5632 5632 5632 5632 5632 5633 5633 5634 5634 5635 5636 5636 5637 5637 5638 5639 5639
5656 5655 5654 5653 5652 5651 5650 5649 5649 5648 5647 5647 5646 5645 5644 5643 5643 5642 5641 5640 5639 5639 5638 5638 5637 5637 5636 5635 5635 5635 5635 5635 5635 5635 5634 5634 5633 5632 5632 5631 5631 5631 5631 5631 5630 5630 5630 5629 5629 5629 5629 5629 5629 5629 5629 5629 5629 5628 5628 5628 5628 5629 5629 5629 5629 5629 5629 5629 5629 5628 5628 5628 5628 5628 5629 5629 5630 5630 5631 5632 5633 5633 5634 5635 5635
5651 5650 5649 5649 5648 5647 5646 5646 5645 5644 5643 5643 5642 5641 5640 5639 5638 5637 5637 5636 5635 5635 5634 5633 5633 5632 5631 5631 5630 5630 5630 5630 5630 5630 5629 5629 5629 5628 5627 5627 5627 5626 5626 5626 5626 5626 5625 5625 5624 5624 5624 5623 5623 5624 5624 5624 5624 5624 5623 5623 5623 5623 5623 5624 5624 5624 5624 5624 5625 5625 5625 5624 5624 5625 5625 5625 5625 5626 5626 5627 5628 5629 5630 5630 5631
5647 5646 5645 5644 5644 5643 5643 5642 5641 5641 5640 5639 5638 5637 5636 5635 5634 5633 5633 5632 5631 5631 5630 5629 5628 5628 5627 5627 5626 5626 5625 5625 5625 5624 5624 5624 5624 5623 5623 5622 5622 5621 5621 5621 5621 5621 5621 5620 5620 5619 5619 5618 5618 5618 5618 5618 5618 5618 5618 5618 5618 5618 5617 5618 5618 5618 5618 5619 5619 5619 5620 5620 5620 5620 5620 5621 5621 5622 5622 5622 5623 5624 5624 5625 5626
5642 5642 5641 5640 5640 5639 5639 5638 5638 5637 5636 5635 5634 5633 5632 5631 5631 5630 5629 5628 5628 5627 5626 5625 5625 5624 5623 5622 5622 5621 5621 5620 5620 5619 5619 5618 5618 5618 5617 5617 5616 5616 5616 5615 5615 5615 5615 5615 5614 5614 5613 5613 5612 5612 5612 5612 5612 5612 5612 5612 5612 5612 5612 5612 5612 5612 5612 5613 5613 5613 5614 5614 5614 5615 5615 5615 5616 5616 5617 5617 5618 5619 5619 5620 5620
5638 5637 5636 5636 5635 5635 5634 5634 5633 5633 5632 5631 5630 5629 5628 5627 5627 5626 5625 5624 5623 5623 5622 5621 5620 5619 5619 5618 5617 5617 5616 5616 5615 5614 5614 5613 5613 5612 5612 5611 5611 5610 5610 5609 5609 5609 5609 5609 5608 5608 5607 5607 5607 5606 5606 5605 5605 5605 5605 5605 5605 5605 5605 5606 5606 5606 5606 5606 5607 5607 5607 5608 5608 5608 5609 5609 5610 5610 5610 5611 5612 5613 5613 5614 5615
5633 5632 5632 5631 5631 5630 5630 5629 5629 5628 5628 5627 5626 5625 5624 5623 5623 5622 5621 5620 5619 5618 5617 5616 5615 5614 5614 5613 5612 5612 5611 5611 5610 5609 5609 5608 5608 5607 5606 5606 5605 5605 5604 5604 5603 5603 5602 5602 5602 5602 5601 5601 5601 5600 5600 5600 5599 5599 5599 5599 5599 5599 5599 5599 5599 5600 5600 5600 5600 5600 5601 5601 5601 5602 5602 5603 5603 5604 5604 5605 5605 5606 5606 5607 5608
5629 5628 5627 5627 5626 5626 5626 5625 5624 5624 5623 5622 5621 5620 5620 5619 5618 5617 5616 5615 5614 5613 5612 5611 5610 5609 5609 5608 5607 5607 5606 5605 5605 5604 5603 5603 5602 5602 5601 5601 5600 5600 5599 5599 5598 5597 5597 5597 5596 5596 5596 5595 5595 5595 5594 5594 5594 5594 5593 5593 5593 5593 5593 5593 5593 5593 5594 5594 5594 5594 5594 5594 5595 5595 5596 5596 5597 5597 5598 5598 5599 5599 5600 5600 5601